Wind_Speed
34 33 32 33 39 35 33 35 29 23 10 16 36 33 26 22 22 22 22 22 21 27 18 25 24 26 23 21 19 15 12 5 4 7 6 7 6 6 5 8 8 8 8 8
28 29 24 24 31 29 28 31 30 26 30 31 54 53 31 25 25 25 27 24 20 28 23 28 24 27 22 18 14 18 14 10 7 5 5 8 10 9 7 6 4 5 5 6
27 25 19 18 28 25 26 29 29 32 34 32 47 45 32 30 27 29 30 30 20 30 24 33 25 23 26 21 20 19 14 15 11 8 6 6 10 13 11 9 8 7 8 9
28 20 16 22 21 22 25 27 29 30 22 7 50 39 31 30 30 31 32 33 28 29 28 31 28 26 24 25 24 21 21 21 16 15 12 12 14 16 19 18 15 16 16 15
20 15 16 14 25 26 25 26 21 19 23 31 34 32 30 31 31 33 32 34 33 33 30 31 28 25 27 27 26 25 25 24 22 22 19 21 21 21 22 27 25 24 21 22
27 20 15 19 19 22 21 20 7 14 29 43 33 30 29 30 34 34 30 35 37 37 33 31 29 30 32 32 30 29 26 27 27 26 27 27 28 30 33 35 32 30 30 32
31 26 25 20 14 20 20 19 19 37 46 39 29 26 30 30 34 35 33 37 42 40 38 35 33 34 33 34 35 33 31 31 31 31 32 33 35 38 40 38 38 36 37 38
35 32 32 27 24 22 22 24 25 32 31 28 27 27 31 31 35 35 33 37 44 43 42 39 37 38 37 37 38 37 35 34 36 37 38 40 42 45 44 43 43 45 46 47
37 37 33 32 29 28 21 21 23 29 27 23 24 28 29 31 34 32 28 37 42 45 40 42 41 40 42 44 40 42 41 42 43 44 45 44 47 47 48 48 50 51 52 52
40 40 33 35 34 34 30 23 23 25 29 24 23 28 30 30 34 33 30 30 42 45 45 43 42 44 43 42 44 46 46 46 47 46 47 48 50 50 51 54 55 55 56 57
47 42 40 36 36 38 38 34 25 24 29 28 26 27 29 30 34 37 33 32 32 40 41 43 49 45 45 47 47 47 48 49 50 51 52 54 57 60 61 62 62 63 63 61
53 43 45 42 45 43 41 41 36 30 28 30 29 27 29 33 32 35 38 35 34 38 40 41 43 45 49 50 51 52 53 56 57 58 60 61 62 63 65 66 67 68 69 68
60 58 56 52 50 46 45 44 43 41 35 30 32 31 29 32 34 37 42 43 45 46 48 47 46 47 48 50 52 52 55 59 61 62 64 65 66 69 71 71 72 73 74 74
68 66 63 59 56 55 51 49 46 46 44 40 34 34 36 35 37 40 42 44 46 49 49 49 48 48 49 51 53 55 57 57 58 60 62 63 66 67 69 71 74 75 77 79
75 71 70 66 65 59 56 55 54 50 51 49 47 43 40 41 43 45 47 49 49 51 53 54 53 52 54 56 58 59 60 61 62 64 65 67 69 70 72 74 76 79 81 84
79 77 75 72 67 64 65 61 57 57 59 56 55 53 51 49 50 51 51 51 52 54 53 55 58 58 59 60 61 62 64 65 66 67 69 70 72 74 76 78 80 82 83 86
85 85 83 77 73 72 70 70 64 62 64 64 62 61 60 61 60 60 58 59 57 58 58 58 58 59 59 60 62 63 65 66 67 69 72 75 77 79 81 83 86 88 90 92
90 88 88 85 82 81 79 73 71 68 68 69 70 68 66 67 67 67 66 65 65 64 63 64 65 66 67 69 69 70 72 73 74 76 79 81 83 86 88 90 92 95 97 100
96 95 94 90 86 85 83 79 79 75 72 74 74 74 74 77 74 71 73 71 71 72 70 69 70 72 73 76 77 78 79 80 82 84 85 87 89 91 93 95 96 99 102 103
89 89 90 91 91 91 90 90 85 80 75 73 77 77 78 79 78 77 76 76 77 75 75 76 77 78 80 80 81 82 84 86 87 89 90 92 95 97 98 100 103 104 104 101
82 85 87 87 86 87 89 91 90 87 84 82 81 78 84 82 81 82 81 80 81 81 80 80 81 83 84 86 88 89 91 92 92 94 97 98 100 102 104 104 102 97 91 87
62 69 74 79 82 84 85 84 84 84 85 86 84 84 86 86 86 87 87 87 86 85 85 85 86 86 88 89 91 92 93 96 97 98 100 100 100 101 98 91 87 82 80 78
45 50 54 59 62 68 74 79 81 82 82 82 80 83 85 85 85 85 85 86 87 87 87 88 88 88 89 91 91 93 94 96 97 98 98 97 91 85 81 79 79 77 73 67
27 31 35 41 46 54 60 64 65 68 75 81 82 83 86 86 87 86 84 84 84 85 85 86 88 90 91 91 93 93 94 94 91 85 81 79 77 75 75 72 71 68 66 65
12 17 21 26 32 39 44 50 53 58 58 60 63 70 74 76 75 76 80 81 82 82 83 83 84 85 85 85 83 80 77 72 70 71 72 72 71 70 67 66 66 67 71 72
6 7 10 14 18 23 27 31 35 39 43 45 47 50 53 57 59 60 61 67 67 64 67 66 66 65 65 64 63 63 64 64 65 65 65 65 66 67 69 72 75 76 79 79
12 11 10 10 10 12 15 18 22 26 30 33 35 37 38 43 46 45 47 49 51 52 52 51 51 52 53 54 55 57 58 58 60 60 63 67 70 73 75 78 78 79 78 78
Wind_Direction
256 258 255 257 259 253 251 250 250 251 43 344 306 273 258 252 241 224 215 209 209 192 209 190 207 214 209 220 233 243 217 257 61 23 31 360 2 10 25 42 35 32 30 26
253 262 264 256 251 246 240 241 238 219 175 164 235 258 255 241 228 220 214 212 216 199 201 195 210 214 215 214 225 230 228 226 265 300 8 1 350 331 341 343 5 5 355 347
245 262 269 252 239 238 237 238 242 241 228 231 243 256 253 236 217 215 212 211 211 199 210 206 210 214 215 218 222 214 215 249 251 261 285 313 329 329 313 301 302 308 312 306
242 258 264 247 238 235 235 240 245 247 231 157 260 257 245 230 216 213 214 211 216 212 213 213 218 225 224 226 226 233 238 250 240 247 263 285 304 307 316 297 294 293 296 296
237 243 248 249 232 231 233 245 258 275 272 260 253 248 240 230 217 209 215 210 218 214 213 213 214 229 228 235 229 235 243 246 245 248 258 275 290 293 295 301 294 294 296 296
230 243 243 239 236 240 233 238 242 296 279 252 264 253 236 231 217 215 212 213 213 211 211 212 214 222 232 236 237 238 245 249 250 254 260 268 278 284 287 292 293 293 299 300
231 243 254 243 236 233 238 236 215 199 229 260 260 247 229 230 216 215 222 213 211 210 213 215 221 225 228 239 239 239 246 256 260 260 263 267 274 284 288 289 290 287 290 294
230 231 244 253 248 242 232 241 234 235 247 252 250 239 232 228 214 215 222 218 213 214 215 216 222 231 234 240 245 241 243 249 258 263 268 273 278 284 286 286 285 286 288 290
234 233 235 240 252 257 246 241 245 252 259 254 249 242 235 227 216 217 228 221 219 220 225 225 226 232 239 241 244 250 247 250 253 260 267 273 278 280 281 283 285 285 285 288
235 236 236 238 243 251 261 249 246 252 264 257 245 242 236 229 222 223 227 230 228 228 229 233 237 240 242 240 243 247 251 255 260 264 269 274 277 278 279 280 283 285 287 289
239 235 236 240 244 246 254 261 250 250 255 260 248 242 243 235 226 229 235 236 241 240 238 239 238 238 243 247 251 254 255 257 263 266 269 273 274 277 279 280 282 284 287 289
243 240 239 240 243 246 247 253 260 257 253 256 258 250 244 242 237 231 235 239 238 243 243 247 249 248 247 247 248 253 257 260 263 265 267 271 273 274 277 279 281 284 287 287
244 244 243 241 243 246 249 250 253 259 257 254 255 258 251 246 240 233 231 234 238 243 247 250 252 255 256 257 259 262 262 262 262 264 267 269 272 275 278 281 281 283 285 287
243 245 246 246 246 246 247 251 254 256 258 258 252 252 255 250 240 239 238 240 244 247 250 254 256 257 258 260 263 263 265 267 268 271 273 275 277 280 280 282 282 284 287 289
244 245 246 246 247 248 249 248 249 252 255 257 258 255 250 254 255 250 244 242 245 248 253 256 258 260 262 263 264 265 268 271 273 275 276 278 279 280 281 283 285 286 288 289
243 245 246 246 247 248 249 249 248 248 251 252 255 257 255 251 250 252 254 253 255 252 255 259 262 265 266 267 270 271 272 274 275 276 277 279 280 281 283 284 285 287 288 289
242 244 246 247 246 246 248 249 248 248 251 253 255 258 259 259 257 254 254 256 258 260 264 266 268 270 272 273 273 275 277 277 279 279 281 282 284 285 286 287 287 289 292 294
244 245 247 247 246 246 247 248 247 246 248 252 253 256 258 258 260 260 260 260 261 260 261 264 266 269 271 273 274 276 277 278 280 281 282 284 285 286 288 290 292 293 294 295
245 246 246 246 245 245 245 246 246 247 248 250 253 255 257 258 258 259 262 265 266 266 268 269 269 271 272 273 276 278 279 281 282 283 284 285 287 290 291 292 293 294 296 297
245 245 246 246 245 247 246 246 246 247 246 246 252 255 256 258 262 262 262 261 265 268 269 270 272 273 275 276 277 278 279 282 283 284 286 288 289 291 292 293 295 297 297 298
248 247 246 244 243 243 245 245 245 246 247 247 249 252 256 258 259 261 263 263 264 265 267 268 271 274 276 277 279 280 281 283 285 285 287 289 290 292 294 295 296 296 297 296
245 244 243 243 242 242 242 243 244 244 246 247 248 249 252 255 258 260 262 264 265 267 269 270 272 274 275 277 278 280 281 284 286 287 289 291 291 292 294 295 295 294 295 295
244 242 240 240 239 239 240 241 241 242 244 245 247 249 251 253 255 257 259 261 263 266 269 271 272 273 276 278 280 282 283 284 287 289 290 291 292 293 292 292 294 294 295 295
245 241 237 234 231 232 232 238 237 238 239 241 242 246 250 254 256 259 262 264 266 267 269 270 272 274 277 279 280 282 284 286 287 289 289 289 290 292 293 293 293 294 294 294
232 229 226 227 228 230 232 233 234 237 241 243 243 245 248 253 257 259 261 264 264 265 268 271 273 274 276 279 281 282 285 286 286 286 289 291 290 291 292 293 293 294 293 294
150 174 192 204 212 218 221 225 228 232 235 239 242 245 247 250 252 255 258 262 268 269 270 271 274 276 278 280 281 282 284 287 288 288 290 292 293 295 296 295 295 294 293 293
87 105 125 145 165 182 197 209 216 222 226 230 234 239 243 250 253 256 257 260 265 269 272 275 277 278 280 283 285 285 286 288 290 291 293 293 293 294 294 294 294 295 295 295
Height
10807 10811 10813 10814 10812 10817 10820 10822 10830 10837 10842 10841 10833 10836 10838 10838 10840 10841 10842 10845 10847 10852 10856 10860 10862 10865 10868 10871 10874 10876 10876 10876 10874 10874 10872 10872 10872 10871 10870 10867 10866 10865 10863 10861
10801 10802 10804 10805 10804 10807 10810 10814 10821 10829 10831 10827 10832 10828 10833 10832 10835 10837 10839 10842 10844 10848 10852 10854 10858 10861 10864 10866 10869 10872 10872 10872 10872 10871 10871 10871 10870 10870 10868 10866 10864 10862 10861 10860
10794 10795 10796 10798 10796 10799 10803 10806 10812 10817 10826 10832 10826 10827 10825 10826 10829 10831 10833 10837 10840 10844 10847 10851 10854 10857 10860 10863 10865 10866 10868 10868 10868 10868 10868 10867 10868 10867 10866 10865 10863 10861 10859 10858
10787 10789 10790 10789 10794 10794 10796 10800 10804 10809 10821 10835 10814 10820 10818 10819 10822 10824 10827 10832 10836 10840 10842 10846 10850 10853 10855 10858 10859 10860 10863 10864 10864 10864 10864 10863 10862 10862 10862 10862 10860 10858 10856 10854
10780 10783 10784 10787 10787 10787 10790 10795 10800 10806 10812 10814 10810 10809 10808 10810 10814 10818 10821 10826 10831 10834 10837 10840 10843 10847 10850 10852 10853 10855 10856 10857 10858 10858 10858 10857 10857 10857 10857 10857 10855 10852 10850 10848
10773 10776 10778 10779 10783 10784 10786 10792 10799 10797 10799 10805 10802 10799 10802 10802 10808 10812 10816 10819 10824 10828 10831 10834 10837 10840 10843 10845 10847 10848 10850 10850 10850 10850 10850 10850 10849 10849 10849 10848 10847 10844 10842 10840
10766 10770 10771 10773 10777 10778 10782 10789 10791 10783 10789 10791 10795 10791 10793 10796 10801 10807 10808 10813 10817 10821 10825 10828 10831 10833 10835 10837 10839 10841 10842 10843 10843 10843 10841 10841 10841 10840 10839 10837 10836 10835 10833 10831
10758 10763 10765 10767 10769 10773 10776 10780 10787 10788 10789 10789 10783 10783 10785 10789 10794 10798 10803 10806 10810 10814 10817 10820 10824 10826 10827 10829 10831 10832 10833 10834 10834 10833 10833 10833 10832 10831 10829 10827 10826 10823 10821 10820
10751 10754 10759 10761 10763 10765 10769 10771 10773 10774 10774 10775 10776 10776 10779 10782 10788 10794 10798 10801 10805 10808 10810 10813 10815 10818 10820 10822 10823 10823 10824 10824 10824 10824 10823 10823 10822 10820 10818 10816 10814 10812 10809 10807
10743 10744 10753 10754 10757 10759 10760 10763 10765 10767 10768 10768 10769 10770 10774 10778 10783 10787 10790 10793 10796 10800 10803 10806 10807 10809 10811 10813 10813 10812 10813 10814 10814 10813 10813 10812 10810 10808 10807 10805 10802 10799 10795 10792
10731 10737 10742 10747 10749 10750 10752 10754 10758 10761 10762 10763 10763 10765 10769 10773 10777 10780 10785 10787 10788 10791 10793 10794 10797 10799 10800 10801 10801 10801 10802 10802 10802 10802 10801 10800 10798 10796 10794 10791 10787 10784 10780 10776
10718 10731 10733 10737 10736 10739 10744 10746 10750 10753 10756 10757 10758 10761 10764 10765 10770 10774 10775 10776 10778 10779 10781 10783 10785 10786 10787 10789 10790 10790 10789 10790 10789 10788 10787 10785 10783 10781 10778 10775 10771 10767 10763 10759
10706 10712 10716 10722 10726 10731 10734 10738 10741 10744 10747 10751 10752 10754 10756 10757 10761 10764 10763 10766 10767 10768 10769 10772 10774 10775 10776 10775 10775 10776 10776 10775 10774 10773 10771 10769 10767 10764 10761 10758 10754 10750 10746 10742
10689 10694 10700 10709 10716 10718 10723 10728 10732 10734 10737 10740 10744 10746 10748 10748 10750 10752 10753 10756 10757 10757 10758 10759 10761 10761 10761 10762 10762 10761 10761 10760 10759 10758 10756 10754 10751 10747 10744 10740 10736 10732 10727 10721
10668 10678 10684 10693 10697 10708 10714 10716 10720 10724 10724 10727 10731 10734 10737 10738 10739 10740 10742 10743 10745 10747 10748 10748 10748 10749 10748 10748 10748 10747 10747 10746 10744 10742 10739 10736 10733 10729 10725 10721 10717 10712 10707 10700
10656 10661 10665 10675 10687 10693 10694 10700 10707 10710 10709 10713 10715 10718 10722 10726 10725 10727 10729 10732 10733 10734 10735 10735 10735 10735 10735 10735 10734 10733 10732 10730 10727 10724 10721 10717 10713 10709 10705 10701 10696 10691 10686 10678
10636 10640 10645 10659 10669 10671 10678 10683 10690 10695 10696 10698 10702 10705 10707 10708 10709 10712 10716 10717 10719 10720 10720 10720 10721 10721 10720 10719 10718 10716 10714 10711 10708 10705 10701 10697 10693 10688 10684 10679 10673 10668 10662 10656
10613 10620 10624 10636 10647 10652 10658 10665 10672 10677 10681 10683 10685 10689 10691 10691 10692 10695 10697 10700 10702 10704 10705 10705 10705 10704 10703 10701 10699 10697 10694 10691 10689 10685 10680 10676 10672 10667 10661 10655 10649 10642 10636 10628
10587 10596 10603 10613 10623 10628 10637 10644 10650 10660 10667 10666 10668 10670 10672 10671 10676 10678 10679 10683 10683 10684 10686 10687 10687 10685 10683 10681 10679 10677 10674 10672 10667 10663 10659 10653 10647 10642 10636 10630 10624 10616 10609 10601
10562 10570 10579 10588 10599 10603 10613 10620 10630 10637 10647 10653 10649 10652 10654 10655 10656 10659 10662 10665 10664 10666 10667 10666 10666 10665 10663 10661 10658 10656 10652 10648 10644 10640 10634 10629 10622 10616 10610 10603 10597 10589 10581 10572
10538 10544 10552 10561 10571 10579 10584 10593 10606 10617 10624 10629 10634 10638 10630 10635 10639 10639 10640 10645 10645 10646 10648 10648 10647 10644 10643 10638 10635 10633 10629 10624 10620 10615 10609 10604 10598 10591 10584 10577 10570 10561 10551 10544
10512 10516 10523 10532 10543 10553 10562 10573 10581 10592 10597 10604 10612 10615 10612 10615 10617 10620 10622 10624 10624 10626 10625 10626 10625 10623 10619 10617 10613 10610 10605 10600 10596 10589 10584 10579 10573 10566 10559 10551 10543 10536 10530 10523
10493 10496 10502 10509 10521 10530 10540 10548 10559 10568 10576 10581 10588 10589 10591 10596 10598 10601 10602 10605 10605 10606 10605 10602 10603 10600 10597 10594 10592 10587 10584 10577 10571 10566 10560 10552 10547 10541 10533 10527 10520 10514 10507 10500
10482 10485 10490 10497 10504 10512 10521 10524 10537 10544 10552 10558 10567 10571 10572 10576 10578 10582 10586 10586 10586 10586 10585 10583 10581 10578 10576 10573 10568 10565 10561 10555 10549 10542 10534 10527 10523 10520 10513 10505 10498 10491 10485 10480
10477 10479 10483 10488 10495 10502 10509 10516 10522 10528 10536 10541 10549 10553 10558 10561 10567 10567 10565 10564 10566 10567 10565 10564 10562 10558 10555 10552 10548 10543 10538 10533 10528 10521 10515 10509 10502 10497 10491 10484 10478 10472 10464 10459
10478 10480 10483 10486 10491 10497 10502 10508 10514 10519 10525 10531 10536 10541 10544 10546 10547 10549 10550 10544 10547 10547 10545 10545 10543 10540 10536 10532 10528 10524 10520 10514 10509 10503 10496 10490 10483 10476 10470 10463 10457 10451 10442 10438
10482 10483 10485 10488 10490 10494 10498 10502 10507 10512 10516 10520 10525 10529 10532 10530 10533 10536 10536 10535 10534 10533 10531 10529 10527 10524 10521 10516 10512 10507 10503 10498 10491 10486 10480 10473 10465 10458 10450 10441 10435 10427 10419 10413